{"data":{"norad_id":65713,"epoch":"2026-09-20T21:55:34.881888Z","epoch_age_seconds":113726,"freshness":"FRESH","line1":"1 65713U 25214B   26263.91359817  .00000815  00000+0  12484-3 0  9993","line2":"2 65713  49.9855 224.9933 0011957 240.2487 119.7262 14.83699209 53711","mean_motion":14.83699209,"eccentricity":0.0011957,"inclination_deg":49.9855,"raan_deg":224.9933,"arg_perigee_deg":240.2487,"mean_anomaly_deg":119.7262,"bstar":0.00012484,"rev_number":5371,"period_min":97.054712388136,"perigee_km":609.30690823794,"apogee_km":626.03668539464,"semimajor_km":6995.8087968163,"source":"CELESTRAK","updated_at":"2026-09-21T09:00:15.521749Z"}}